This is the latest recevied weather packets stored in our database for station/object KR4DFQ. If no packets are shown the sender has not sent any weather packets the latest 10 day(s).
| Time | Temp. | Humidity | Pressure | Rain* | Wind** | Luminosity | Snow |
|---|---|---|---|---|---|---|---|
| 1787792332 | 26.11° C | 89% | 1016.6 hPa | 0 mm | - | 0 W/m² | - |
| 1787792031 | 26.11° C | 88% | 1016.9 hPa | 0 mm | - | 0 W/m² | - |
| 1787791730 | 26.11° C | 88% | 1016.7 hPa | 0 mm | - | 0 W/m² | - |
| 1787791425 | 26.11° C | 88% | 1016.7 hPa | 0 mm | - | 0 W/m² | - |
| 1787791121 | 26.11° C | 87% | 1016.4 hPa | 0 mm | - | 0 W/m² | - |
| 1787790816 | 26.67° C | 87% | 1016.1 hPa | 0 mm | - | 0 W/m² | - |
| 1787790516 | 26.67° C | 85% | 1016.1 hPa | 0 mm | - | 0 W/m² | - |
| 1787790212 | 26.67° C | 85% | 1016.3 hPa | 0 mm | - | 0 W/m² | - |
| 1787789908 | 26.67° C | 83% | 1016.5 hPa | 0 mm | - | 0 W/m² | - |
| 1787789607 | 26.67° C | 81% | 1016.4 hPa | 0 mm | - | 0 W/m² | - |
| 1787789306 | 26.67° C | 82% | 1016.6 hPa | 0 mm | - | 0 W/m² | - |
| 1787789002 | 26.67° C | 82% | 1016.5 hPa | 0 mm | - | 0 W/m² | - |
| 1787788700 | 26.67° C | 81% | 1016.3 hPa | 0 mm | - | 0 W/m² | - |
| 1787788400 | 26.67° C | 82% | 1016.6 hPa | 0 mm | - | 1 W/m² | - |
| 1787788095 | 27.22° C | 82% | 1016.5 hPa | 0 mm | - | 1 W/m² | - |
| 1787787790 | 27.22° C | 84% | 1016.4 hPa | 0 mm | - | 2 W/m² | - |
| 1787787488 | 27.22° C | 84% | 1016.5 hPa | 0 mm | - | 3 W/m² | - |
| 1787787183 | 27.22° C | 85% | 1016.5 hPa | 0 mm | - | 3 W/m² | - |
| 1787786883 | 27.78° C | 82% | 1016.5 hPa | 0 mm | - | 4 W/m² | - |
| 1787786578 | 28.33° C | 81% | 1016.6 hPa | 0 mm | - | 7 W/m² | - |
| 1787786273 | 28.89° C | 80% | 1016.5 hPa | 0 mm | - | 9 W/m² | - |
| 1787785969 | 28.89° C | 77% | 1016.3 hPa | 0 mm | - | 12 W/m² | - |
| 1787785664 | 28.33° C | 78% | 1016.4 hPa | 0 mm | - | 14 W/m² | - |
| 1787785364 | 28.89° C | 77% | 1016.5 hPa | 0 mm | - | 17 W/m² | - |
| 1787785063 | 28.89° C | 75% | 1016.4 hPa | 0 mm | - | 18 W/m² | - |
* Rain latest hour (hover to see other rain measurements)
** Current wind speed in m/s (hover to see current wind gust speed)